Simultaneous Nadir Overpasses (SNOs) Predictions

Prediction of SNOs between NPP and TERRA Satellite Orbit:

Table of predicted SNOs for the next 14.0 days since TLE Epoch: 6/3/2023
Index Date (NPP) Time (NPP) Lat,Lon (NPP) SZA (NPP ) Date (TERRA) Time (TERRA) Lat,Lon (TERRA) SZA (TERRA ) Distance(km) Time Diff (sec)
1 06/03/2023 03:30:21 70.94, 123.02 48.62 06/03/2023 03:30:45 70.93, 123.00 48.60 1.61 24
2 06/03/2023 04:21:03 -70.85, -69.51 131.49 06/03/2023 04:20:10 -70.84, -69.48 131.49 1.31 53
3 06/05/2023 15:33:33 -71.20, 121.79 131.40 06/05/2023 15:34:44 -71.11, 122.25 131.52 19.19 71
4 06/05/2023 16:24:13 70.89, -70.37 48.27 06/05/2023 16:24:09 70.88, -70.44 48.27 2.60 4
5 06/05/2023 17:14:50 -70.53, 97.53 132.11 06/05/2023 17:13:38 -70.59, 96.77 132.02 28.75 72
6 06/08/2023 04:27:22 -71.00, -71.34 131.87 06/08/2023 04:28:09 -71.00, -71.30 131.88 1.22 47
7 06/08/2023 05:18:06 70.89, 96.14 48.03 06/08/2023 05:17:32 70.87, 96.17 48.00 2.73 34
8 06/10/2023 16:30:48 71.88, -73.70 48.87 06/10/2023 16:31:54 71.73, -71.14 48.64 90.39 66
9 06/10/2023 17:21:14 -70.95, 95.26 132.12 06/10/2023 17:21:32 -70.96, 95.28 132.11 1.50 18
10 06/10/2023 18:11:58 70.85, -97.26 47.78 06/10/2023 18:10:55 70.83, -97.26 47.76 2.42 63
11 06/13/2023 05:24:23 71.02, 94.36 47.79 06/13/2023 05:25:28 71.02, 94.34 47.78 0.57 65
12 06/13/2023 06:15:05 -70.91, -98.15 132.32 06/13/2023 06:14:54 -70.91, -98.17 132.33 1.12 11
13 06/13/2023 07:05:36 70.13, 70.41 46.86 06/13/2023 07:04:28 70.16, 68.39 46.96 76.08 68
14 06/15/2023 18:18:15 70.99, -99.07 47.64 06/15/2023 18:18:50 70.98, -99.07 47.63 0.49 35
15 06/15/2023 19:08:57 -70.88, 68.42 132.47 06/15/2023 19:08:16 -70.88, 68.42 132.47 0.46 41



Historial Predications of SNOs between NPP and TERRA
